Temperature
20 20 18 17 15 15 15 15 14 14 14 14 14 13 13 13 13 13 12 12 12 12 11 12 12 12 13 13 13 13 13 13 12 13 13 14 13 13 13 13 13 12 12
20 20 18 17 15 15 15 15 14 14 14 13 13 12 12 12 12 12 12 12 12 12 11 11 12 12 12 12 13 13 12 12 12 13 13 13 13 13 13 13 13 12 12
20 20 18 16 15 15 15 15 14 14 14 13 12 12 12 12 12 13 13 12 12 11 12 12 12 12 12 12 12 12 12 12 12 13 13 13 13 13 12 13 13 13 12
19 19 18 16 15 15 15 14 14 14 13 13 12 12 12 12 12 12 12 12 12 11 12 13 13 13 13 12 12 12 11 11 12 12 13 12 12 12 12 12 13 13 12
19 19 18 17 15 15 15 14 14 14 13 13 13 12 12 13 13 12 12 12 12 12 12 13 13 13 13 12 12 12 12 12 13 12 12 11 12 12 11 12 12 12 12
19 19 19 17 16 15 15 15 14 14 13 13 13 13 13 13 13 13 12 12 12 12 12 13 13 13 13 13 13 13 13 13 14 14 13 12 12 12 12 12 13 13 13
19 19 20 19 17 16 16 15 15 14 14 13 13 13 13 13 13 13 13 12 12 12 13 13 13 14 14 13 13 13 14 14 14 15 15 14 13 13 13 14 14 14 14
19 19 20 19 18 17 17 16 15 15 14 14 13 13 13 13 13 13 13 13 13 14 14 14 14 15 15 14 14 14 14 14 14 15 15 15 15 14 15 15 15 15 15
18 18 19 19 18 18 17 16 15 15 14 14 14 14 14 13 13 13 14 14 14 14 15 15 15 15 15 15 15 15 15 15 15 15 16 16 15 15 15 16 15 15 15
18 18 18 19 18 18 17 17 16 16 15 15 15 15 15 14 14 14 14 14 14 15 15 15 15 15 15 15 15 15 15 15 15 15 16 16 15 15 15 15 15 16 15
18 17 17 17 17 17 17 16 16 16 16 15 15 15 15 14 14 13 14 14 15 15 15 15 15 15 15 15 15 15 15 15 15 15 15 15 14 14 15 15 15 15 15
19 18 17 17 17 16 16 16 16 16 16 15 15 14 14 14 13 14 14 14 15 15 15 15 15 15 14 15 15 14 14 14 14 14 14 14 14 14 14 15 15 15 15
20 19 18 17 17 16 16 15 15 15 15 15 14 14 14 14 14 13 13 13 14 14 14 14 14 13 13 13 13 13 13 12 12 12 12 13 13 13 13 13 13 14 14
21 19 18 18 17 16 16 16 15 15 15 14 14 14 14 13 13 13 13 13 13 13 13 13 12 12 13 13 13 13 12 12 12 12 12 12 12 12 12 12 12 12 12
20 19 18 17 17 16 16 15 15 15 15 14 14 13 13 13 13 13 13 13 13 13 13 12 12 12 12 12 12 12 12 12 12 12 12 12 12 12 12 12 12 12 11
20 19 18 17 17 16 15 15 15 15 14 14 14 13 13 13 13 13 13 13 12 12 12 12 12 12 12 12 12 12 12 12 12 12 12 12 12 12 12 12 12 12 12
19 18 18 17 17 16 15 15 15 14 14 14 13 13 13 13 13 12 12 12 12 12 12 12 12 12 12 11 11 11 11 11 12 12 12 12 12 12 12 12 12 12 12
17 18 18 18 17 16 15 14 14 14 14 13 13 13 12 12 12 12 12 12 12 12 12 12 11 11 11 11 11 11 11 11 11 11 11 12 12 12 12 12 12 12 12
16 17 18 18 16 15 15 14 14 14 13 13 12 12 12 12 12 12 12 12 12 11 11 11 11 11 10 10 10 10 10 10 11 11 11 11 11 12 12 12 12 12 12
16 16 17 16 15 14 14 14 13 13 13 12 12 12 12 12 12 12 12 12 11 11 11 10 10 10 9 9 8 8 9 10 10 10 10 11 11 11 11 11 11 11 11
15 15 15 15 14 13 13 13 13 12 12 12 12 12 12 12 12 12 12 11 11 10 9 9 8 8 8 7 7 7 8 8 9 9 9 9 9 9 10 10 10 10 11
15 15 14 14 13 13 13 13 13 12 12 12 12 12 12 12 11 11 11 10 10 9 8 8 7 7 7 7 6 6 6 6 7 6 6 7 7 8 8 8 8 8 8
15 15 15 14 14 13 13 13 12 12 12 12 12 12 11 11 11 11 10 9 9 8 7 7 7 7 6 6 5 5 4 5 4 5 5 5 6 6 5 6 6 6 6
14 14 14 14 13 13 13 13 13 13 12 12 11 11 11 11 10 10 10 9 8 8 7 7 6 6 5 5 5 4 4 4 3 3 3 4 4 4 4 4 4 4 4
14 14 14 14 13 13 13 13 13 13 12 12 11 10 10 10 10 9 9 9 8 7 7 6 6 5 5 4 3 3 3 3 2 2 2 2 2 2 2 2 2 2 3
13 13 14 14 13 13 13 13 12 12 11 11 11 10 9 9 9 9 9 8 7 7 6 5 5 5 4 3 3 2 2 1 1 1 1 1 1 1 1 1 1 1 1
Wind_Speed
9 13 15 15 13 12 13 12 10 9 9 7 6 8 9 9 9 8 7 7 9 9 9 10 10 11 11 8 7 7 7 6 6 6 6 6 6 6 6 1 4 7 2
13 16 15 14 13 12 13 12 10 8 8 7 6 6 6 6 6 6 7 7 8 8 8 9 11 11 11 10 5 4 4 4 4 5 6 8 10 9 4 0 5 7 6
14 17 14 13 12 12 13 13 10 8 6 5 5 4 2 2 4 6 6 6 7 6 6 8 9 8 9 10 8 5 5 5 4 5 9 12 13 12 8 3 4 7 7
13 17 15 14 12 13 14 12 10 8 6 4 2 3 3 0 1 4 5 6 6 4 4 6 8 8 8 8 7 7 6 5 4 7 11 12 7 6 6 5 5 6 6
10 15 18 17 14 15 14 12 9 7 6 3 1 2 3 3 2 4 4 6 6 3 3 4 5 6 6 6 7 7 7 5 3 8 13 10 4 3 5 5 7 8 8
10 16 18 17 15 15 14 12 9 8 6 4 1 0 2 5 4 4 6 8 6 4 1 3 4 4 5 6 6 7 7 6 5 10 10 9 5 6 7 7 9 10 10
10 16 17 17 15 14 13 12 10 9 6 4 2 1 2 7 5 5 8 8 6 4 1 3 4 6 7 7 8 8 7 7 8 9 9 11 9 9 10 11 11 12 13
10 13 16 15 14 13 13 12 11 10 7 5 2 0 2 5 8 4 8 8 6 3 3 5 6 8 8 8 9 10 9 10 10 9 10 12 15 14 14 14 14 15 15
9 11 13 13 12 11 11 10 10 9 7 5 3 1 3 2 3 5 7 6 5 4 5 7 9 10 11 11 11 11 11 11 10 11 14 13 15 16 16 16 17 17 18
7 7 12 13 14 13 12 12 10 9 7 6 6 4 4 5 7 7 9 8 6 5 7 9 11 12 13 13 14 15 15 13 12 14 14 15 18 19 18 18 19 20 21
5 5 7 10 10 13 14 14 13 10 9 9 9 9 8 10 12 12 8 6 4 7 9 12 13 14 14 15 17 21 18 12 13 12 13 15 17 18 19 20 21 22 23
9 7 6 7 8 7 8 13 11 12 12 12 12 13 12 9 2 4 3 6 8 10 12 14 16 16 14 13 16 17 11 13 13 11 13 16 18 20 21 22 23 24 25
12 10 8 7 7 7 5 5 5 7 9 11 8 9 6 3 3 4 4 7 10 11 10 11 11 11 11 9 7 7 9 10 8 9 13 17 20 23 24 24 25 25 26
10 11 9 8 6 6 5 3 2 3 3 3 4 3 2 1 1 0 1 2 3 3 3 4 4 7 7 8 7 6 7 6 7 9 13 18 20 23 25 26 26 27 28
8 9 8 8 8 5 4 4 2 3 3 5 5 3 3 2 2 4 2 3 4 5 4 3 4 7 7 6 6 7 8 7 8 10 11 17 19 21 24 26 27 28 28
7 7 6 7 8 8 5 4 3 2 3 4 5 4 4 2 2 2 3 4 4 6 5 4 6 6 6 6 8 8 8 6 8 9 11 15 19 20 21 24 25 26 27
7 5 4 1 4 9 8 7 4 3 5 4 5 6 5 6 6 4 5 5 4 7 7 5 6 4 6 6 7 8 6 7 8 8 11 12 14 17 18 20 22 23 24
5 5 5 2 3 7 8 6 4 5 5 5 8 11 13 11 9 6 6 6 7 8 6 6 6 6 7 8 8 8 7 8 10 8 9 11 10 11 12 15 18 20 23
6 7 5 6 6 8 9 8 9 8 9 9 11 10 12 14 14 7 6 6 9 5 6 7 6 7 8 8 8 8 9 9 10 11 10 8 10 12 12 15 17 17 20
8 8 8 9 10 10 10 10 10 10 9 7 7 9 12 12 15 10 4 6 7 6 6 7 8 8 7 8 11 10 10 10 8 8 12 12 10 14 15 15 13 14 17
8 8 9 10 9 9 9 9 8 7 7 6 6 10 12 12 12 9 6 6 7 6 7 8 6 8 6 7 6 7 8 8 7 12 13 12 13 11 12 13 12 12 13
9 9 10 10 11 11 9 8 8 8 7 6 5 7 12 12 11 9 7 6 7 6 8 7 6 5 6 7 6 6 5 6 6 11 8 9 11 10 14 13 13 13 13
9 9 10 11 12 12 12 9 8 7 6 5 5 5 7 11 11 9 7 5 7 6 6 6 6 7 6 6 6 5 5 5 11 5 9 10 9 10 10 11 13 11 14
8 8 10 10 10 10 9 9 10 7 6 5 4 4 6 9 9 8 7 6 6 6 6 6 7 5 6 6 5 5 6 9 8 9 6 7 10 11 10 11 11 12 13
8 9 9 10 10 10 10 10 10 8 6 4 5 6 6 6 7 7 7 5 6 5 6 7 6 7 5 5 4 5 7 7 9 12 13 10 8 7 8 9 10 11 11
8 8 8 10 10 10 10 10 10 9 8 7 6 5 4 5 5 6 6 5 5 4 5 6 6 8 6 7 6 6 6 6 9 11 15 15 12 8 8 8 9 10 10
Wind_Direction
126 132 149 149 153 150 147 141 132 124 107 93 92 91 93 99 80 66 53 62 55 38 19 16 31 42 47 61 86 86 76 67 38 21 3 331 303 293 311 310 308 311 212
122 133 147 151 155 149 145 136 128 123 109 98 99 104 96 90 80 76 70 67 53 37 19 8 15 30 34 33 46 63 54 40 19 348 322 298 274 255 248 197 306 321 334
123 134 147 150 152 147 144 135 134 133 122 113 102 96 88 98 92 92 92 78 62 40 11 1 2 10 21 20 21 24 15 2 356 323 302 281 267 233 211 207 275 294 319
127 139 149 148 149 146 144 140 144 142 131 121 102 56 29 346 179 136 128 108 90 60 18 5 1 1 4 2 0 357 350 339 338 311 295 286 317 173 205 235 262 263 272
126 138 142 148 151 146 145 147 151 148 138 131 112 26 1 345 269 202 168 136 119 94 38 9 358 356 349 339 332 326 322 330 317 288 279 282 309 274 263 249 266 267 264
128 123 140 146 149 151 152 152 152 151 151 151 156 303 337 348 316 195 165 150 145 139 75 355 327 320 319 318 313 306 305 308 288 277 295 304 277 266 265 260 260 263 266
131 125 140 144 151 157 158 159 161 160 158 156 156 208 12 15 8 167 163 162 169 173 206 304 311 305 298 292 287 284 282 278 268 270 274 283 270 256 258 258 257 254 258
118 126 138 150 155 159 160 169 176 172 167 163 156 215 35 41 37 100 161 174 192 209 256 283 301 301 300 291 284 283 280 274 278 278 268 261 264 256 253 256 255 257 255
128 135 145 156 163 168 172 182 186 180 175 165 163 111 100 102 74 100 145 179 206 239 273 277 286 291 291 289 289 289 278 263 260 270 272 261 255 255 255 253 254 255 255
141 154 153 165 173 177 184 190 179 175 172 170 174 172 186 228 231 204 190 193 209 257 281 283 282 283 283 284 282 277 269 260 251 256 257 255 254 255 257 257 257 256 257
181 181 169 167 168 179 184 179 174 170 179 189 197 209 220 236 231 211 181 173 231 269 275 275 276 276 276 277 273 267 263 252 249 253 252 249 253 258 260 262 262 262 262
185 201 192 181 162 174 159 157 181 179 182 201 211 198 214 227 171 118 173 233 252 261 266 268 266 268 268 262 262 262 246 241 242 248 249 247 254 259 261 262 262 261 262
177 178 185 189 170 165 137 167 178 176 170 202 206 169 185 161 151 203 220 221 233 244 249 263 254 253 247 245 251 257 243 247 251 257 261 257 256 262 264 264 264 264 263
154 160 173 178 176 170 147 162 171 160 155 167 147 158 163 115 73 266 314 301 275 262 258 284 280 285 280 282 274 265 264 265 262 260 258 260 258 263 268 270 269 268 268
143 148 169 172 171 167 146 137 202 174 138 149 114 98 66 36 12 23 337 345 339 347 340 335 325 323 324 318 319 318 311 300 295 289 283 277 271 264 270 276 276 274 273
123 141 161 174 172 150 140 148 199 142 100 90 102 92 73 44 49 18 3 18 10 357 347 338 335 329 322 325 318 308 310 312 305 303 297 291 283 270 265 276 280 279 277
72 69 77 72 163 148 155 168 151 104 90 74 76 68 64 62 50 46 40 26 359 354 359 8 352 336 329 324 313 307 306 300 290 289 293 292 288 278 266 269 277 280 279
109 106 120 162 183 145 136 133 114 94 84 73 67 62 52 48 57 58 47 23 10 18 17 6 357 352 345 336 329 323 321 312 299 297 297 294 297 292 279 269 266 270 272
127 117 131 148 141 114 101 87 80 73 68 67 62 58 51 41 43 48 44 30 13 19 18 5 358 355 343 337 334 330 325 316 307 309 320 337 339 336 331 323 307 291 277
120 122 111 97 95 98 93 84 77 74 69 64 60 55 53 49 44 35 34 32 18 18 15 10 4 356 345 346 337 329 317 308 311 351 352 344 337 334 334 334 333 333 329
94 101 108 111 112 106 105 104 98 91 81 71 65 63 57 50 49 44 29 27 21 19 25 10 7 349 346 337 336 327 309 327 346 359 337 331 330 331 340 336 332 336 333
95 86 82 83 85 89 96 96 99 101 97 92 78 65 64 53 44 43 34 28 19 23 22 5 11 354 344 348 351 339 332 315 7 329 312 329 320 337 333 330 330 327 324
87 90 95 95 97 100 104 107 108 98 93 84 83 79 70 63 47 38 35 30 20 27 17 2 14 1 347 342 356 351 333 309 318 282 325 308 326 328 319 318 317 318 321
91 90 91 94 99 107 115 114 111 109 108 110 109 103 98 80 63 38 38 38 31 31 21 360 5 350 345 330 334 340 308 309 314 309 295 307 314 311 309 314 322 320 319
90 87 88 84 81 84 89 97 104 107 110 104 95 83 96 89 74 43 37 38 38 29 12 357 348 335 327 317 318 313 307 308 305 307 305 303 296 291 303 317 315 315 316
97 93 95 92 83 79 81 82 92 101 101 92 82 70 74 83 70 46 31 25 30 19 358 343 338 325 315 308 309 301 295 301 306 305 305 307 304 298 302 302 303 304 307
Height
1494 1494 1495 1496 1499 1501 1502 1503 1504 1504 1504 1503 1502 1502 1502 1503 1503 1504 1505 1505 1505 1505 1505 1505 1505 1505 1505 1506 1506 1506 1505 1505 1505 1504 1504 1503 1504 1505 1505 1505 1506 1507 1507
1494 1494 1495 1497 1499 1501 1502 1504 1504 1504 1504 1503 1502 1502 1502 1503 1504 1504 1505 1505 1505 1505 1505 1505 1504 1504 1504 1505 1505 1505 1504 1503 1503 1502 1502 1502 1503 1504 1504 1504 1504 1505 1506
1494 1494 1496 1497 1499 1501 1502 1504 1504 1504 1504 1503 1502 1502 1503 1504 1504 1504 1504 1504 1505 1505 1504 1504 1504 1504 1504 1504 1504 1504 1503 1502 1501 1501 1501 1502 1502 1502 1503 1503 1503 1504 1505
1495 1495 1496 1498 1499 1501 1502 1503 1503 1503 1503 1503 1503 1502 1503 1504 1504 1504 1503 1504 1504 1504 1503 1502 1503 1503 1502 1503 1503 1502 1502 1501 1500 1500 1500 1501 1501 1501 1501 1501 1501 1502 1503
1497 1496 1496 1498 1499 1501 1502 1502 1503 1503 1502 1502 1503 1503 1503 1504 1504 1504 1504 1504 1504 1504 1503 1502 1502 1501 1501 1501 1501 1501 1500 1499 1499 1499 1499 1500 1501 1500 1500 1499 1499 1499 1500
1497 1496 1497 1498 1499 1500 1500 1501 1502 1502 1502 1502 1502 1503 1503 1503 1504 1504 1504 1504 1504 1504 1503 1501 1501 1501 1500 1500 1500 1500 1499 1498 1498 1498 1498 1498 1498 1498 1497 1497 1496 1496 1497
1498 1495 1497 1497 1498 1499 1500 1501 1501 1502 1502 1502 1502 1503 1503 1503 1503 1503 1504 1504 1504 1503 1502 1502 1501 1500 1500 1500 1499 1499 1498 1497 1497 1496 1496 1496 1496 1495 1495 1495 1494 1494 1494
1498 1496 1497 1497 1498 1498 1499 1500 1501 1500 1501 1502 1502 1502 1502 1503 1503 1503 1503 1504 1504 1503 1502 1502 1501 1500 1499 1499 1498 1497 1497 1496 1495 1494 1494 1493 1493 1493 1492 1492 1492 1492 1491
1497 1496 1495 1497 1498 1498 1498 1499 1500 1500 1501 1501 1501 1502 1502 1503 1503 1503 1504 1504 1503 1502 1502 1501 1500 1500 1499 1498 1497 1496 1495 1494 1493 1493 1492 1491 1491 1490 1490 1489 1489 1489 1488
1496 1496 1495 1496 1497 1498 1498 1499 1500 1499 1500 1501 1501 1501 1502 1503 1503 1504 1503 1503 1503 1502 1501 1501 1500 1499 1498 1497 1496 1495 1494 1493 1492 1491 1490 1489 1489 1488 1488 1487 1486 1486 1485
1494 1495 1496 1496 1497 1497 1497 1498 1499 1499 1500 1501 1501 1501 1502 1503 1503 1503 1503 1503 1503 1502 1501 1501 1500 1499 1497 1496 1495 1493 1492 1491 1490 1488 1487 1487 1486 1486 1485 1484 1483 1482 1481
1492 1493 1495 1496 1497 1497 1498 1498 1498 1498 1499 1500 1500 1501 1502 1503 1504 1505 1504 1504 1502 1501 1501 1500 1499 1497 1496 1494 1492 1491 1490 1488 1486 1485 1484 1484 1483 1482 1481 1480 1479 1478 1476
1489 1491 1493 1494 1495 1496 1497 1498 1498 1498 1499 1500 1502 1503 1503 1503 1504 1504 1504 1503 1501 1500 1499 1498 1497 1495 1494 1492 1491 1490 1488 1486 1485 1484 1482 1481 1479 1478 1476 1475 1473 1472 1471
1488 1489 1490 1492 1493 1494 1495 1497 1498 1498 1499 1500 1502 1503 1504 1504 1503 1504 1503 1503 1501 1500 1499 1498 1497 1495 1494 1493 1491 1488 1487 1485 1483 1481 1479 1478 1476 1475 1473 1471 1469 1467 1465
1487 1487 1489 1490 1490 1492 1494 1495 1497 1499 1499 1500 1501 1502 1503 1503 1503 1502 1502 1502 1501 1500 1499 1497 1495 1493 1491 1489 1487 1485 1483 1481 1480 1478 1476 1474 1472 1470 1468 1467 1464 1462 1460
1484 1484 1486 1487 1488 1489 1491 1494 1496 1498 1498 1499 1500 1501 1502 1502 1501 1501 1501 1500 1499 1498 1496 1495 1493 1491 1489 1487 1484 1482 1479 1477 1475 1474 1471 1469 1466 1465 1463 1461 1459 1457 1455
1479 1480 1482 1484 1486 1487 1489 1492 1494 1495 1497 1498 1498 1499 1500 1499 1498 1498 1498 1497 1497 1496 1495 1493 1491 1488 1486 1484 1481 1478 1476 1473 1471 1468 1466 1463 1461 1460 1458 1456 1454 1452 1449
1476 1477 1478 1480 1482 1485 1488 1491 1493 1494 1495 1495 1496 1497 1497 1497 1496 1495 1495 1494 1494 1493 1492 1490 1488 1485 1482 1479 1476 1473 1471 1469 1466 1464 1461 1459 1457 1455 1453 1451 1449 1447 1444
1474 1474 1475 1477 1480 1483 1486 1489 1489 1491 1492 1492 1494 1495 1495 1495 1494 1494 1493 1492 1491 1490 1489 1486 1484 1481 1477 1474 1471 1469 1467 1464 1462 1460 1457 1454 1451 1449 1447 1446 1444 1442 1439
1472 1473 1474 1475 1478 1481 1484 1485 1487 1488 1490 1492 1493 1494 1495 1495 1494 1493 1492 1491 1489 1487 1485 1483 1480 1477 1475 1471 1468 1465 1462 1460 1459 1456 1452 1450 1447 1445 1443 1441 1438 1435 1432
1472 1472 1474 1475 1478 1480 1482 1484 1485 1487 1490 1492 1493 1494 1494 1494 1493 1492 1491 1489 1487 1484 1482 1480 1477 1475 1472 1469 1465 1460 1458 1458 1456 1453 1451 1447 1445 1442 1439 1436 1433 1430 1426
1470 1472 1473 1475 1478 1479 1480 1482 1485 1488 1490 1492 1493 1494 1494 1493 1492 1490 1488 1486 1484 1482 1480 1477 1475 1473 1471 1468 1464 1459 1455 1452 1451 1449 1446 1444 1441 1437 1434 1431 1428 1424 1421
1470 1471 1473 1475 1477 1479 1481 1483 1486 1489 1491 1493 1493 1493 1493 1492 1491 1489 1487 1484 1482 1480 1478 1476 1473 1471 1469 1467 1466 1464 1459 1452 1446 1442 1440 1437 1435 1431 1428 1425 1422 1419 1415
1470 1472 1474 1476 1478 1480 1482 1483 1485 1488 1490 1492 1492 1492 1491 1491 1489 1486 1484 1482 1480 1478 1476 1474 1472 1470 1468 1465 1463 1462 1460 1455 1447 1436 1433 1432 1429 1425 1422 1419 1416 1412 1408
1471 1472 1475 1477 1478 1480 1482 1484 1486 1488 1490 1490 1490 1490 1488 1487 1486 1484 1482 1480 1478 1476 1474 1472 1470 1468 1466 1463 1460 1457 1453 1450 1445 1438 1426 1421 1420 1419 1416 1413 1408 1404 1400
1471 1473 1476 1478 1479 1481 1482 1484 1486 1487 1488 1488 1488 1488 1487 1485 1484 1483 1481 1479 1476 1474 1472 1470 1468 1465 1463 1460 1456 1453 1449 1445 1440 1435 1426 1416 1411 1409 1407 1404 1401 1397 1394